FDX746 GCTS-LPMA

Flight info

Callsign FDX746
Flight time 0h 43m
Altitude 32000
Route BIMBO DCT EKNOT
Aircraft B77L/H-SDE1E2E3FGHIJ2J3J4J5M1RWXY/LB1D1

Departure

Time 2026-05-07 11:14
Airport Tenerife Sur Airport (GCTS)

Arrival

Time 2026-05-07 11:57
Airport Cristiano Ronaldo International Airport (LPMA)
Time Latitude Longitude Altitude Speed Heading
2026-05-07 11:03 28.04596 -16.57594 210 ft 0 kts 338°
2026-05-07 11:09 28.04601 -16.57600 210 ft 6 kts 312°
2026-05-07 11:10 28.04564 -16.57709 220 ft 22 kts 213°
2026-05-07 11:10 28.04449 -16.57814 212 ft 22 kts 239°
2026-05-07 11:10 28.04390 -16.57971 217 ft 22 kts 249°
2026-05-07 11:10 28.04331 -16.58129 218 ft 22 kts 243°
2026-05-07 11:11 28.04270 -16.58285 213 ft 22 kts 248°
2026-05-07 11:11 28.04216 -16.58445 214 ft 22 kts 249°
2026-05-07 11:11 28.04165 -16.58606 206 ft 22 kts 253°
2026-05-07 11:11 28.04114 -16.58765 210 ft 22 kts 250°
2026-05-07 11:12 28.04060 -16.58916 207 ft 12 kts 248°
2026-05-07 11:12 28.04028 -16.58979 212 ft 9 kts 217°
2026-05-07 11:12 28.03968 -16.58975 208 ft 10 kts 143°
2026-05-07 11:12 28.03926 -16.58917 212 ft 10 kts 122°
2026-05-07 11:13 28.03916 -16.58783 206 ft 30 kts 75°
2026-05-07 11:13 28.04067 -16.58337 212 ft 94 kts 68°
2026-05-07 11:13 28.04383 -16.57433 218 ft 150 kts 69°
2026-05-07 11:13 28.04782 -16.56242 543 ft 164 kts 71°
2026-05-07 11:14 28.05210 -16.55041 1124 ft 168 kts 66°
2026-05-07 11:14 28.05920 -16.54020 1692 ft 170 kts 32°
2026-05-07 11:14 28.06990 -16.53422 2158 ft 182 kts 24°
2026-05-07 11:14 28.08235 -16.52782 2348 ft 210 kts 24°
2026-05-07 11:15 28.09647 -16.52052 2641 ft 235 kts 24°
2026-05-07 11:15 28.11192 -16.51250 3134 ft 249 kts 24°
2026-05-07 11:15 28.12792 -16.50412 3870 ft 256 kts 24°
2026-05-07 11:15 28.14414 -16.49550 4758 ft 260 kts 24°
2026-05-07 11:16 28.16073 -16.48661 5448 ft 267 kts 24°
2026-05-07 11:16 28.17749 -16.47745 6141 ft 274 kts 24°
2026-05-07 11:16 28.19480 -16.46792 6846 ft 279 kts 24°
2026-05-07 11:16 28.21231 -16.45816 7567 ft 282 kts 24°
2026-05-07 11:17 28.23001 -16.44813 8230 ft 287 kts 24°
2026-05-07 11:17 28.24810 -16.43823 8891 ft 290 kts 19°
2026-05-07 11:17 28.26718 -16.43047 9589 ft 292 kts 15°
2026-05-07 11:17 28.28674 -16.42349 10246 ft 297 kts 14°
2026-05-07 11:18 28.30701 -16.41639 10603 ft 316 kts 14°
2026-05-07 11:18 28.32857 -16.40875 10785 ft 342 kts 15°
2026-05-07 11:18 28.35201 -16.40028 10973 ft 366 kts 15°
2026-05-07 11:18 28.40314 -16.38129 12199 ft 387 kts 16°
2026-05-07 11:19 28.50809 -16.34142 15327 ft 408 kts 16°
2026-05-07 11:19 28.61833 -16.29929 18306 ft 427 kts 15°
2026-05-07 11:19 28.73339 -16.25525 20810 ft 444 kts 15°
2026-05-07 11:19 28.85259 -16.20951 23255 ft 460 kts 15°
2026-05-07 11:20 28.97604 -16.16202 25312 ft 474 kts 15°
2026-05-07 11:20 29.10269 -16.11317 27349 ft 486 kts 15°
2026-05-07 11:20 29.23076 -16.06366 29141 ft 498 kts 15°
2026-05-07 11:20 29.34741 -16.01843 30685 ft 502 kts 15°
2026-05-07 11:21 29.38038 -16.00561 31231 ft 499 kts 15°
2026-05-07 11:21 29.41344 -15.99435 31803 ft 492 kts
2026-05-07 11:21 29.44707 -15.98732 32085 ft 491 kts
2026-05-07 11:21 29.51426 -15.98413 32096 ft 483 kts 355°
2026-05-07 11:22 29.67742 -15.98937 32080 ft 484 kts 355°
2026-05-07 11:22 29.74421 -15.99109 32079 ft 483 kts 355°
2026-05-07 11:23 29.81145 -15.99272 32075 ft 483 kts 355°
2026-05-07 11:23 29.87867 -15.99435 32080 ft 483 kts 355°
2026-05-07 11:24 29.94586 -15.99600 32066 ft 483 kts 355°
2026-05-07 11:24 30.01265 -15.99765 32081 ft 483 kts 355°
2026-05-07 11:25 30.07981 -15.99931 32076 ft 483 kts 355°
2026-05-07 11:25 30.14703 -16.00098 32075 ft 483 kts 355°
2026-05-07 11:26 30.21421 -16.00265 32074 ft 483 kts 355°
2026-05-07 11:26 30.28150 -16.00432 32083 ft 484 kts 355°
2026-05-07 11:27 30.34832 -16.00598 32075 ft 483 kts 355°
2026-05-07 11:27 30.41559 -16.00766 32081 ft 484 kts 355°
2026-05-07 11:28 30.48288 -16.00934 32077 ft 483 kts 355°
2026-05-07 11:28 30.55011 -16.01102 32082 ft 483 kts 355°
2026-05-07 11:29 30.61733 -16.01270 32071 ft 483 kts 355°
2026-05-07 11:29 30.68414 -16.01438 32083 ft 484 kts 355°
2026-05-07 11:30 30.75150 -16.01607 32077 ft 484 kts 355°
2026-05-07 11:30 30.81888 -16.01776 32080 ft 484 kts 355°
2026-05-07 11:31 30.88622 -16.01946 32076 ft 484 kts 354°
2026-05-07 11:31 30.95365 -16.02116 32077 ft 485 kts 354°
2026-05-07 11:32 31.05450 -16.02370 32081 ft 486 kts 354°
2026-05-07 11:33 31.12209 -16.02541 32082 ft 486 kts 354°
2026-05-07 11:33 31.18970 -16.02712 32077 ft 486 kts 354°
2026-05-07 11:33 31.22383 -16.02801 31331 ft 498 kts 354°
2026-05-07 11:34 31.25848 -16.02890 30740 ft 495 kts 354°
2026-05-07 11:34 31.29264 -16.02973 30197 ft 488 kts 354°
2026-05-07 11:34 31.32594 -16.03055 29589 ft 482 kts 354°
2026-05-07 11:34 31.35929 -16.03139 29011 ft 476 kts 354°
2026-05-07 11:35 31.39217 -16.03247 28472 ft 469 kts 352°
2026-05-07 11:35 31.42410 -16.03662 28277 ft 454 kts 346°
2026-05-07 11:35 31.45517 -16.04401 28278 ft 457 kts 340°
2026-05-07 11:36 31.51633 -16.06522 27958 ft 458 kts 339°
2026-05-07 11:36 31.54676 -16.07602 27338 ft 455 kts 338°
2026-05-07 11:36 31.57697 -16.08670 26742 ft 452 kts 339°
2026-05-07 11:36 31.60657 -16.09709 26197 ft 448 kts 339°
2026-05-07 11:37 31.63627 -16.10745 25670 ft 444 kts 339°
2026-05-07 11:37 31.66576 -16.11771 25124 ft 440 kts 339°
2026-05-07 11:37 31.69502 -16.12788 24578 ft 437 kts 339°
2026-05-07 11:37 31.72413 -16.13800 24050 ft 434 kts 339°
2026-05-07 11:38 31.75298 -16.14803 23528 ft 431 kts 339°
2026-05-07 11:38 31.78166 -16.15801 22960 ft 428 kts 339°
2026-05-07 11:38 31.81009 -16.16791 22388 ft 425 kts 339°
2026-05-07 11:38 31.83832 -16.17775 21843 ft 421 kts 339°
2026-05-07 11:39 31.85688 -16.18422 21491 ft 419 kts 339°
2026-05-07 11:39 31.88478 -16.19396 20970 ft 416 kts 339°
2026-05-07 11:39 31.91242 -16.20361 20448 ft 414 kts 339°
2026-05-07 11:39 31.94886 -16.21635 19783 ft 410 kts 339°
2026-05-07 11:40 31.97610 -16.22588 19295 ft 407 kts 339°
2026-05-07 11:40 32.00318 -16.23535 18800 ft 405 kts 339°
2026-05-07 11:40 32.03015 -16.24480 18275 ft 403 kts 339°
2026-05-07 11:40 32.04792 -16.25103 17908 ft 402 kts 339°
2026-05-07 11:41 32.07460 -16.26038 17398 ft 398 kts 339°
2026-05-07 11:41 32.10098 -16.26964 16901 ft 394 kts 339°
2026-05-07 11:41 32.12718 -16.27883 16404 ft 391 kts 339°
2026-05-07 11:41 32.15314 -16.28794 15893 ft 388 kts 339°
2026-05-07 11:42 32.18712 -16.30042 15229 ft 383 kts 336°
2026-05-07 11:42 32.20401 -16.30746 14886 ft 381 kts 336°
2026-05-07 11:42 32.22879 -16.31818 14400 ft 378 kts 335°
2026-05-07 11:42 32.25306 -16.32884 13920 ft 375 kts 335°
2026-05-07 11:43 32.27737 -16.33952 13399 ft 372 kts 336°
2026-05-07 11:43 32.30114 -16.34990 13189 ft 349 kts 336°
2026-05-07 11:43 32.32299 -16.35935 12903 ft 321 kts 336°
2026-05-07 11:43 32.34328 -16.36813 12453 ft 304 kts 335°
2026-05-07 11:44 32.36305 -16.37674 12100 ft 300 kts 336°
2026-05-07 11:44 32.38248 -16.38522 11827 ft 294 kts 336°
2026-05-07 11:44 32.40152 -16.39353 11495 ft 291 kts 336°
2026-05-07 11:44 32.42020 -16.40168 11139 ft 289 kts 336°
2026-05-07 11:45 32.43898 -16.40986 10762 ft 287 kts 336°
2026-05-07 11:45 32.45766 -16.41800 10400 ft 285 kts 337°
2026-05-07 11:45 32.47618 -16.42607 10051 ft 283 kts 337°
2026-05-07 11:45 32.49459 -16.43409 9650 ft 281 kts 337°
2026-05-07 11:46 32.51288 -16.44206 9256 ft 279 kts 337°
2026-05-07 11:46 32.53110 -16.44999 8861 ft 278 kts 337°
2026-05-07 11:46 32.54919 -16.45788 8454 ft 277 kts 337°
2026-05-07 11:46 32.56723 -16.46574 8064 ft 276 kts 338°
2026-05-07 11:47 32.58495 -16.47347 7669 ft 274 kts 338°
2026-05-07 11:47 32.60285 -16.48128 7255 ft 275 kts 337°
2026-05-07 11:47 32.62078 -16.48911 6840 ft 275 kts 338°
2026-05-07 11:47 32.63866 -16.49692 6490 ft 273 kts 338°
2026-05-07 11:48 32.65638 -16.50466 6123 ft 270 kts 338°
2026-05-07 11:48 32.67392 -16.51232 5762 ft 267 kts 338°
2026-05-07 11:48 32.69131 -16.51993 5413 ft 265 kts 338°
2026-05-07 11:48 32.70831 -16.52737 5052 ft 263 kts 338°
2026-05-07 11:49 32.72540 -16.53485 4688 ft 261 kts 338°
2026-05-07 11:49 32.74239 -16.54229 4309 ft 260 kts 338°
2026-05-07 11:49 32.75932 -16.54970 3898 ft 259 kts 338°
2026-05-07 11:49 32.77619 -16.55709 3503 ft 258 kts 338°
2026-05-07 11:50 32.79286 -16.56461 3234 ft 248 kts 333°
2026-05-07 11:50 32.80541 -16.57667 3194 ft 224 kts 302°
2026-05-07 11:50 32.81088 -16.59319 3171 ft 212 kts 278°
2026-05-07 11:50 32.81074 -16.61047 3170 ft 210 kts 257°
2026-05-07 11:51 32.80598 -16.62619 3196 ft 199 kts 242°
2026-05-07 11:51 32.79739 -16.63867 3179 ft 195 kts 220°
2026-05-07 11:51 32.78633 -16.64819 3211 ft 198 kts 216°
2026-05-07 11:51 32.77484 -16.65757 3064 ft 205 kts 216°
2026-05-07 11:52 32.76292 -16.66718 2781 ft 207 kts 216°
2026-05-07 11:52 32.75106 -16.67684 2522 ft 206 kts 216°
2026-05-07 11:52 32.73942 -16.68636 2293 ft 200 kts 216°
2026-05-07 11:52 32.72815 -16.69560 2019 ft 192 kts 216°
2026-05-07 11:53 32.71741 -16.70443 1747 ft 188 kts 216°
2026-05-07 11:53 32.70690 -16.71308 1564 ft 175 kts 216°
2026-05-07 11:53 32.69702 -16.72121 1543 ft 172 kts 216°
2026-05-07 11:53 32.68766 -16.72892 1490 ft 153 kts 216°
2026-05-07 11:54 32.67876 -16.73568 1488 ft 151 kts 209°
2026-05-07 11:54 32.66962 -16.74216 1495 ft 150 kts 215°
2026-05-07 11:54 32.66123 -16.74899 1290 ft 144 kts 218°
2026-05-07 11:54 32.65473 -16.75738 917 ft 141 kts 244°
2026-05-07 11:55 32.65145 -16.76855 976 ft 148 kts 260°
2026-05-07 11:55 32.65161 -16.78080 1020 ft 152 kts 282°
2026-05-07 11:55 32.65530 -16.79257 807 ft 156 kts 305°
2026-05-07 11:55 32.66338 -16.80038 640 ft 151 kts 339°
2026-05-07 11:56 32.67348 -16.80067 574 ft 146 kts 19°
2026-05-07 11:56 32.68179 -16.79335 402 ft 158 kts 45°
2026-05-07 11:56 32.68942 -16.78436 196 ft 151 kts 44°
2026-05-07 11:56 32.69635 -16.77629 182 ft 116 kts 44°
2026-05-07 11:57 32.69923 -16.77289 207 ft 15 kts 45°
2026-05-07 11:57 32.69935 -16.77204 200 ft 10 kts 133°
2026-05-07 11:57 32.69863 -16.77184 196 ft 13 kts 187°
2026-05-07 11:57 32.69782 -16.77248 183 ft 16 kts 225°
2026-05-07 11:58 32.69702 -16.77347 174 ft 18 kts 226°
2026-05-07 11:58 32.69627 -16.77437 173 ft 9 kts 225°
2026-05-07 11:58 32.69578 -16.77432 173 ft 8 kts 136°
2026-05-07 11:58 32.69544 -16.77395 173 ft 3 kts 138°
2026-05-07 11:59 32.69540 -16.77391 174 ft 0 kts 138°